This demonstration page uses our WeatherBlox Daily Observations layout. Learn more.

Left ArrowRight Arrow

53.62937, 11.41316

Hourly Observations for July 1, 2018

Temp ( °F °C ) Dew Point ( °F °C ) Humidity (%) Winds ( mph kmh ) Pressure ( in mb ) Visibility ( mi km ) Precip ( " mm )
6:50 am 06:50 Mostly Sunny 55 13 46 8 72 72 ESE 2 4 30.21 1023 7 11 N/A
7:20 am 07:20 Mostly Sunny 54 12 48 9 82 82 E 3 6 30.21 1023 7 11 N/A
7:50 am 07:50 Mostly Sunny 57 14 48 9 72 72 VRB 1 2 30.21 1023 7 11 N/A
8:20 am 08:20 Mostly Sunny 61 16 46 8 59 59 SE 5 7 30.21 1023 7 11 N/A
8:50 am 08:50 Mostly Sunny 64 18 46 8 52 52 SE 5 7 30.21 1023 7 11 N/A
9:20 am 09:20 Mostly Sunny 66 19 45 7 46 46 SE 6 9 30.21 1023 7 11 N/A
9:50 am 09:50 Mostly Sunny 66 19 39 4 37 37 VRB 7 11 30.21 1023 7 11 N/A
10:20 am 10:20 Mostly Sunny 68 20 39 4 35 35 ESE 7 11 30.21 1023 7 11 N/A
10:50 am 10:50 Mostly Sunny 70 21 43 6 38 38 SE 6 9 30.21 1023 7 11 N/A
11:20 am 11:20 Mostly Sunny 70 21 39 4 33 33 ENE 9 15 30.21 1023 7 11 N/A
11:50 am 11:50 Mostly Sunny 70 21 39 4 33 33 ENE 9 15 30.21 1023 7 11 N/A
12:20 pm 12:20 Mostly Sunny 72 22 41 5 33 33 ENE 9 15 30.21 1023 7 11 N/A
12:50 pm 12:50 Mostly Sunny 73 23 43 6 33 33 ESE 9 15 30.21 1023 7 11 N/A
1:20 pm 13:20 Mostly Sunny 73 23 45 7 36 36 NE 13 20 30.21 1023 7 11 N/A
1:50 pm 13:50 Mostly Sunny 72 22 43 6 36 36 ENE 13 20 30.18 1022 7 11 N/A
2:20 pm 14:20 Mostly Sunny 72 22 39 4 31 31 ENE 14 22 30.18 1022 7 11 N/A
2:50 pm 14:50 Mostly Sunny 72 22 36 2 27 27 ENE 15 24 30.18 1022 7 11 N/A
3:20 pm 15:20 Mostly Sunny 73 23 34 1 23 23 NE 17 28 30.18 1022 7 11 N/A
3:50 pm 15:50 Mostly Sunny 72 22 37 3 29 29 ENE 15 24 30.18 1022 7 11 N/A
4:20 pm 16:20 Mostly Sunny 72 22 39 4 31 31 NE 15 24 30.18 1022 7 11 N/A
4:50 pm 16:50 Mostly Sunny 72 22 41 5 33 33 ENE 13 20 30.18 1022 7 11 N/A
5:20 pm 17:20 Mostly Sunny 72 22 43 6 36 36 NE 14 22 30.18 1022 7 11 N/A
5:50 pm 17:50 Mostly Sunny 70 21 41 5 35 35 NE 14 22 30.15 1021 7 11 N/A
6:20 pm 18:20 Mostly Sunny 70 21 43 6 38 38 NE 15 24 30.15 1021 7 11 N/A
6:50 pm 18:50 Mostly Sunny 70 21 41 5 35 35 ENE 13 20 30.15 1021 7 11 N/A
7:20 pm 19:20 Mostly Sunny 70 21 43 6 38 38 ENE 14 22 30.15 1021 7 11 N/A
7:50 pm 19:50 Mostly Sunny 68 20 43 6 40 40 ENE 15 24 30.15 1021 7 11 N/A
8:20 pm 20:20 Mostly Sunny 68 20 45 7 43 43 ENE 10 17 30.15 1021 7 11 N/A
8:50 pm 20:50 Mostly Sunny 66 19 45 7 46 46 ENE 9 15 30.15 1021 7 11 N/A

Powered by AerisWeather